Regional Weather Roundup
Issued by NWS Bismarck, ND

Home | Current Version | Previous Version | Text Only | Print | Product List | Glossary On
Versions: 1 2 3 4 5 6 7 8 9 10 11 12 13 14 15 16 17 18 19 20 21 22 23 24 25 26 27 28 29 30 31 32 33 34 35 36 37 38 39 40 41 42 43 44 45 46 47 48 49 50
000
ASUS43 KBIS 210910
RWRBIS

NWR BROADCAST TEXT
NATIONAL WEATHER SERVICE BISMARCK ND
400 AM CDT SAT OCT 21 2017

NOTE: "FAIR" INDICATES FEW OR NO CLOUDS BELOW 12,000 FEET WITH NO
SIGNIFICANT WEATHER AND/OR OBSTRUCTIONS TO VISIBILITY.


CITY           SKY/WX    TMP DP  RH WIND       PRES   REMARKS
WILLISTON        N/A    N/A N/A N/A MISG      29.39R
MINOT          CLEAR     57  33  40 W17       29.27R
MINOT AFB      CLEAR     56  34  44 NW20G26   29.24R
BISMARCK       CLEAR     56  34  43 W8        29.37R
DICKINSON      PTCLDY    48  39  71 W24G37    29.43R
GARRISON         N/A     54  34  46 W14G24    29.32R
HETTINGER ARPT CLOUDY    47  36  65 W20G30    29.54R
JAMESTOWN      CLEAR     59  55  87 S13       29.32S
CARRINGTON     FAIR      59  52  77 S8        29.32R
HAZEN          FAIR      54  34  47 SW9       29.38R
LINTON         FAIR      54  37  54 W8        29.39R
RUGBY          FAIR      55  45  67 W12       29.23R
STANLEY        FAIR      52  34  50 W16G24    29.34R
TIOGA          FAIR      50  32  50 W13       29.35R
WATFORD CITY   FAIR      48  37  66 W20G30    29.40R
$$

CITY           SKY/WX    TMP DP  RH WIND       PRES   REMARKS
GRAND FORKS    CLEAR     67  59  75 S18G31    29.32F
GRAND FORKS AF CLEAR     64  57  77 S21G29    29.32S
DEVILS LAKE    CLEAR     61  54  77 S17       29.27F
FARGO          MOCLDY    65  58  78 S21G35    29.38F
CANDO          FAIR      57  57 100 S13       29.27S
CAVALIER       FAIR      64  59  82 S16G23    29.27F
GRAFTON        FAIR      64  57  77 S18G24    29.31F
GWINNER        SUNNY     66  57  72 S16G23    29.37F
LANGDON        FAIR      61  59  94 S20       29.28S
ROLLA          FAIR      52  52 100 S12       29.23F
WALHALLA       FAIR     N/A N/A N/A S14       29.27S
$$

CITY           SKY/WX    TMP DP  RH WIND       PRES   REMARKS
ABERDEEN       CLEAR     63  58  83 S16       29.38S
MOBRIDGE       PTCLDY    54  47  77 W8        29.41R
BUFFALO          N/A     48  33  56 W31G39    29.53R
RAPID CITY     CLOUDY    52  37  56 N24G35    29.56R
GLASGOW        CLOUDY    45  38  76 W28G38    29.48S
SIDNEY         CLOUDY    48  37  65 W16G22    29.46R
WOLF POINT     CLOUDY    47  38  71 W25G35    29.45R
GLENDIVE       CLOUDY    46  35  65 W20G31    29.51R
MILES CITY     CLOUDY    45  32  60 W20       29.59S
BAKER          MOCLDY    46  36  68 W23G31    29.57R
$$

CITY           SKY/WX    TMP DP  RH WIND       PRES   REMARKS
BILLINGS       CLOUDY    44  22  41 W22G33    29.72R
GREAT FALLS    CLEAR     35  24  64 SW15      29.73R
REGINA         CLOUDY    43  36  75 NW16      29.25F
ESTEVAN        MOCLDY    50  34  53 W10       29.28R
$$





USA.gov is the U.S. government's official web portal to all federal, state and local government web resources and services.